CARTOSAT-2F

Last updated on Sat Dec 13 2025 00:02:31 GMT+0000 (Coordinated Universal Time)

1 43111U 18004A 25346.35317701 .00007943 00000+0 37970-3 0 9991 2 43111 97.4318 43.9964 0001036 138.9974 221.1339 15.19271482438961
UTC large
Height (km)
Speed (km/s)
/
Latitude / Longitude
Inclination (degrees)
Orbital Period (minutes)
Azimuth
Elevation
Range (km)
Doppler Factor

Next 0 passes for location: London (51.5072 / 0.1276)

Sorry there are no passes over London.